Voltar ao catálogo

STARLINK-33827

AtivoComunicaçõesVLEO
NORAD 63798·PAYLOAD·🇺🇸 United States

Lançado May 2, 2025 de Cape Canaveral Space Force Station

Loading…

Próximas Passagens (próximas 24 horas)

TLE

AtualizadoSource: CelesTrak SupGP

Época: Sep 15, 2026, 03:10 UTC

1 63798C 25091Z   26258.13243056 -.00024165  00000+0 -87498-3 0  2583
2 63798  43.0035  62.6850 0001763 272.3212 121.5484 15.27599838    16

Acompanhe STARLINK-33827 em tempo real com AllMySat

Download on the App Store